Location: Gollag?dem
(16.8053°N, 80.8024°E)
Time: 22:05:59
(UTC+00:00)

Tiangong - Visible Passes

Search period start: 22 January 2022 00:00
Search period end: 01 February 2022 00:00
Orbit: 383 x 386 km, 41.5° (Epoch: 22 January)

Date Brightness Start Highest point End Pass type
(mag) Time Alt. Az. Time Alt. Az. Time Alt. Az.
22 Jan 1.8 13:51:05 10° WSW 13:54:08 46° NW 13:54:10 46° NW visible
22 Jan 3.8 23:43:01 11° S 23:43:01 11° S 23:43:23 10° S visible
23 Jan 1.2 12:51:23 10° SW 12:54:31 62° SE 12:57:38 10° ENE visible
24 Jan 3.3 13:29:17 10° W 13:31:40 19° NW 13:33:33 13° N visible
